Probability
0 0 0 0 0 0 0 0 0 0 0 0 0 0 0 0 0 0 0 0 0 0 0 0 0 0 0 0 0 0 0 0 0 0 0 0 0 0 0 0 0 0 0 0
0 0 0 0 0 0 0 0 0 0 0 0 0 0 0 0 0 0 0 0 0 0 0 0 0 0 0 0 0 0 0 0 0 0 0 0 0 0 0 0 0 0 0 0
0 0 0 0 0 0 0 0 0 0 0 0 0 0 0 0 0 0 0 0 0 0 0 0 0 0 0 0 0 0 0 0 0 0 0 0 0 0 0 0 0 0 0 0
0 0 0 0 0 0 0 0 0 0 0 0 0 0 0 0 0 0 0 0 0 0 0 0 0 0 0 0 0 0 0 0 0 0 0 0 0 0 0 0 0 0 0 0
0 0 0 0 0 0 0 0 0 0 0 0 0 0 0 0 0 0 0 0 0 0 0 0 0 0 0 0 0 0 0 0 0 0 0 0 0 0 0 0 0 0 0 0
0 0 0 0 0 0 0 0 0 0 0 0 0 0 0 0 0 0 0 0 0 0 0 0 0 0 0 0 0 0 0 0 0 0 0 0 0 0 0 0 0 0 0 0
0 0 0 0 0 0 0 0 0 0 0 0 0 0 0 0 0 0 0 0 0 0 0 0 0 0 0 0 0 0 0 0 0 0 0 0 0 0 0 0 0 0 0 0
0 0 0 0 0 0 0 0 0 0 0 0 0 0 0 0 0 0 0 0 0 0 0 0 0 0 0 0 0 0 0 0 0 0 0 0 0 0 0 0 0 0 0 0
0 0 0 0 0 0 0 0 0 0 0 0 0 0 0 0 0 0 0 0 0 0 0 0 0 0 0 0 0 0 0 0 0 0 0 0 0 0 0 0 0 0 0 0
0 0 0 0 0 0 0 0 0 0 0 0 0 0 0 0 0 0 0 0 0 0 0 0 0 0 0 0 0 0 0 0 0 0 0 0 0 0 0 0 0 0 0 0
0 0 0 0 0 0 0 0 0 0 0 0 0 0 0 0 0 0 0 0 0 0 0 0 0 0 0 0 0 0 0 0 0 0 0 0 0 0 0 0 0 0 0 0
0 0 0 0 0 0 0 0 0 0 0 0 0 0 0 0 0 0 0 0 0 0 0 0 0 0 0 0 0 0 0 0 0 0 0 0 0 0 0 0 0 0 0 0
0 0 0 0 0 0 0 0 0 0 0 0 0 0 0 0 0 0 0 0 0 0 0 0 0 0 0 0 0 0 0 0 0 0 0 0 0 0 0 0 0 0 0 0
0 0 0 0 0 0 0 0 0 0 0 0 0 0 0 0 0 0 0 0 0 0 0 0 0 0 0 0 0 0 0 0 0 0 0 0 0 0 0 0 0 0 0 0
0 0 0 0 0 0 0 0 0 0 0 0 0 0 0 0 0 0 0 0 0 0 0 0 0 0 0 0 0 0 0 0 0 0 0 0 0 0 0 0 0 0 0 0
0 0 0 0 0 0 0 0 0 0 0 0 0 0 0 0 0 0 0 0 0 0 0 0 0 0 0 0 0 0 0 0 0 0 0 0 0 0 0 0 0 0 0 0
0 0 0 0 0 0 0 0 0 0 0 0 0 0 0 0 0 0 0 0 0 0 0 0 0 0 0 0 0 0 0 0 0 0 0 0 0 0 0 0 0 0 0 0
0 0 0 0 0 0 0 0 0 0 0 0 0 0 0 0 0 0 0 0 0 0 0 0 0 0 0 0 0 0 0 0 0 0 0 0 0 0 0 0 0 0 0 0
0 0 0 0 0 0 0 0 0 0 0 0 0 0 0 0 0 0 0 0 0 0 0 0 0 0 0 0 0 0 0 0 0 0 0 0 0 0 0 0 0 0 0 0
0 0 0 0 0 0 0 0 0 0 0 0 0 0 0 0 0 0 0 0 0 0 0 0 0 0 0 0 0 0 0 0 0 0 0 0 0 0 0 0 0 0 0 0
0 0 0 0 0 0 0 0 0 0 0 0 0 0 0 0 0 0 0 0 0 0 0 0 0 0 0 0 0 0 0 0 0 0 0 0 0 0 0 0 0 0 0 0
0 0 0 0 0 0 0 0 0 0 0 0 0 0 0 0 0 0 0 0 0 0 0 0 0 0 0 0 0 0 0 0 0 0 0 0 0 0 0 0 0 0 0 0
0 0 0 0 0 0 0 0 0 0 0 0 0 0 0 0 0 0 0 0 0 0 0 0 0 0 0 0 0 0 0 0 0 0 0 0 0 0 0 0 0 0 0 0
0 0 0 0 0 0 0 0 0 0 0 0 0 0 0 0 0 0 0 0 0 0 0 0 0 0 0 0 0 0 0 0 0 0 0 0 0 0 0 0 0 0 0 0
0 0 0 0 0 0 0 0 0 0 0 0 0 0 0 0 0 0 0 0 0 0 0 0 0 0 0 0 0 0 0 0 0 0 0 0 0 0 0 0 0 0 0 0
0 0 0 0 0 0 0 0 0 0 0 0 0 0 0 0 0 0 0 0 0 0 0 0 0 0 0 0 0 0 0 0 0 0 0 0 0 0 0 0 0 0 0 0
0 0 0 0 0 0 0 0 0 0 0 0 0 0 0 0 0 0 0 0 0 0 0 0 0 0 0 0 0 0 0 0 0 0 0 0 0 0 0 0 0 0 0 0
Wind_Speed
6 6 8 9 12 14 14 13 12 11 12 13 11 9 7 5 4 4 6 8 11 11 11 10 10 10 10 10 10 10 10 9 9 7 6 6 5 5 4 4 4 3 3 3
6 6 7 7 10 14 14 12 12 8 11 11 9 6 7 7 6 7 8 10 10 10 11 12 13 12 11 11 11 11 11 9 8 7 7 6 5 5 4 3 3 3 3 4
6 4 3 11 12 13 10 9 11 15 16 9 7 9 10 9 8 9 10 9 10 11 12 12 13 13 13 12 10 10 10 9 8 8 7 6 5 5 4 4 3 3 4 4
5 6 11 11 8 12 12 11 12 9 9 10 13 10 7 7 8 9 9 8 8 8 9 8 9 9 9 10 11 10 9 9 8 8 7 6 5 5 4 3 3 4 4 5
6 6 8 7 5 9 11 12 12 14 12 8 3 1 6 8 8 9 7 6 5 6 6 7 9 10 11 10 10 10 9 9 9 8 7 6 6 5 4 3 3 4 4 5
6 7 10 9 7 6 6 8 9 12 13 9 6 3 7 4 4 4 3 3 3 5 6 8 8 10 11 10 10 10 9 9 8 7 7 7 6 4 3 3 4 4 4 5
7 6 9 8 3 9 8 10 6 9 10 9 10 9 3 2 2 3 3 3 5 6 6 7 9 10 10 9 9 8 7 7 6 6 6 5 4 3 3 3 3 4 5 6
7 7 11 6 9 11 10 4 3 5 7 8 8 4 2 3 3 4 5 5 6 6 6 6 8 10 9 8 6 7 7 6 5 5 4 3 4 3 3 3 4 5 5 7
12 10 6 9 11 8 5 5 5 5 6 7 6 5 5 4 4 4 5 5 5 7 7 5 5 8 9 6 7 7 6 5 4 4 3 3 3 3 3 3 3 4 5 6
5 7 6 7 6 5 6 6 5 5 6 8 7 6 6 6 5 5 5 5 6 8 8 6 5 5 7 7 7 7 6 4 4 3 3 2 3 3 3 4 4 5 6 7
7 4 3 6 8 8 6 5 4 4 6 7 8 7 7 7 7 6 5 5 6 7 8 7 6 6 6 6 7 6 5 4 3 3 3 3 3 4 5 5 6 6 6 6
9 9 9 9 9 8 8 8 8 7 5 5 7 8 7 7 6 6 6 6 6 6 7 6 6 6 5 5 6 6 4 3 3 2 2 3 3 4 8 10 14 16 16 14
7 6 7 4 4 7 8 7 7 7 7 6 6 7 8 6 6 7 7 7 7 7 7 7 6 5 4 4 5 5 4 3 3 3 3 3 4 4 6 7 11 15 16 18
4 5 4 4 5 5 5 5 6 5 4 5 6 7 7 6 7 7 7 7 7 7 6 6 5 4 4 4 4 4 4 4 4 3 4 4 4 5 5 6 7 7 10 16
5 5 6 5 5 5 5 7 8 6 6 5 6 7 8 8 8 6 6 6 7 6 5 5 4 3 3 4 4 4 3 3 3 3 4 4 4 5 5 7 8 8 7 9
5 3 4 5 7 6 7 7 8 7 6 6 6 6 6 7 7 6 6 7 7 6 5 4 4 3 3 3 3 2 3 6 5 3 4 4 4 5 6 7 8 8 8 8
8 7 6 6 7 7 6 6 8 8 7 7 7 7 8 8 7 6 5 4 4 4 4 4 3 2 2 3 3 2 3 4 7 5 4 5 5 6 7 7 8 9 9 10
7 8 8 8 9 8 6 6 7 7 7 7 8 8 8 8 7 6 5 4 4 2 1 2 2 2 2 3 3 3 3 3 4 5 5 5 6 6 7 8 9 10 9 10
5 6 6 6 7 8 7 7 7 7 7 8 9 7 6 6 6 5 5 4 3 2 2 1 2 1 2 4 4 3 3 4 5 5 5 9 9 6 7 8 9 10 10 10
6 7 7 7 7 7 8 8 8 8 7 8 8 7 6 5 5 5 4 2 2 3 2 2 2 2 3 4 5 3 4 5 6 6 6 6 7 8 8 9 9 10 10 10
8 9 9 9 8 8 8 8 9 8 7 7 7 7 6 4 4 4 3 1 1 1 1 3 2 2 3 5 7 4 5 5 6 6 7 7 8 9 9 9 10 10 10 10
9 10 11 10 11 9 7 7 8 9 8 7 6 6 6 4 3 2 1 2 1 2 2 1 2 5 7 9 4 4 5 6 6 6 7 7 8 9 10 10 10 10 10 10
9 10 11 11 11 10 9 8 8 8 7 6 6 5 4 3 2 1 1 1 1 4 3 2 6 11 13 7 3 4 5 6 7 7 8 8 9 9 10 11 10 10 10 10
11 11 11 10 10 11 10 8 7 7 7 6 5 4 3 2 1 0 0 3 5 7 3 6 11 13 13 4 4 5 6 7 7 8 8 9 9 9 9 10 10 10 10 12
11 11 11 10 10 8 8 7 7 7 6 5 4 4 2 1 0 1 2 2 6 7 4 7 12 13 8 5 6 6 7 7 9 9 8 8 9 9 10 10 10 11 10 11
10 9 9 9 7 6 5 5 5 4 4 3 3 2 2 1 1 1 2 3 4 8 6 5 6 8 6 6 7 8 8 9 10 9 9 10 10 11 10 10 12 11 11 11
10 9 7 7 6 5 5 5 4 4 3 3 2 2 2 2 2 3 3 4 4 5 5 5 5 6 6 7 7 8 8 8 9 9 9 9 10 10 11 12 11 11 11 11
Wind_Direction
202 180 167 185 191 189 199 206 210 221 223 242 249 251 258 259 240 216 214 206 202 202 198 192 188 186 182 177 171 166 165 169 173 167 161 158 162 168 171 179 193 202 217 239
212 198 187 210 209 200 210 216 226 239 248 242 249 246 252 249 235 232 229 219 212 205 197 194 192 188 181 178 173 167 169 172 163 158 160 164 169 171 176 191 204 210 227 242
209 188 174 239 210 197 205 206 196 223 237 239 244 239 238 238 230 230 233 224 212 206 202 199 193 185 183 176 164 166 168 163 161 162 166 171 171 173 188 201 207 227 241 246
158 148 222 240 197 193 205 220 209 217 229 226 231 238 237 226 222 231 230 225 218 206 199 190 177 170 162 157 162 164 164 163 164 164 168 169 172 187 199 202 214 231 244 251
158 200 253 282 225 184 196 238 217 219 234 238 222 316 279 235 216 223 224 217 208 192 178 164 162 157 151 156 159 162 167 169 170 167 168 172 185 198 202 205 226 236 245 252
158 186 224 234 215 172 147 255 233 208 223 220 145 198 258 240 202 212 199 175 159 143 138 148 152 148 150 157 162 172 173 170 166 165 169 179 191 198 201 209 231 243 255 254
172 205 247 240 179 127 169 234 226 198 205 184 186 209 220 127 130 139 130 125 127 129 135 145 145 144 150 157 172 169 154 150 155 164 170 178 183 191 203 222 241 254 264 267
169 200 237 205 150 179 208 206 185 183 186 184 199 194 161 147 137 131 122 120 124 123 121 129 141 143 148 160 153 138 139 145 154 161 166 167 177 203 214 222 247 262 271 277
190 210 207 177 192 208 179 184 189 181 182 171 174 186 176 163 153 142 136 131 124 126 121 123 136 142 146 147 138 135 136 146 155 160 168 175 187 209 225 227 242 261 265 274
198 230 217 209 215 216 198 200 193 179 168 166 174 175 168 161 157 150 141 138 133 132 132 132 133 130 137 139 138 136 143 153 160 166 185 200 207 211 221 232 243 255 262 269
209 229 224 241 221 213 204 198 182 169 173 176 166 170 170 167 165 158 146 140 142 145 142 141 134 129 133 139 137 138 147 160 171 184 197 217 228 228 233 230 232 247 253 254
207 199 187 214 212 192 186 198 191 173 168 170 171 169 161 161 157 151 147 142 141 140 139 139 137 136 140 143 142 144 156 177 188 198 214 226 247 271 258 256 267 267 268 269
195 188 187 200 188 178 187 196 182 175 171 165 163 156 150 148 150 146 146 150 153 150 145 142 141 145 153 151 150 159 176 190 198 210 223 236 244 258 279 282 273 274 276 280
176 140 164 193 192 178 166 149 135 132 137 142 141 138 138 134 140 149 157 157 144 137 138 142 145 159 165 157 158 172 186 207 215 218 226 236 243 250 259 274 287 282 277 282
196 183 178 162 138 128 129 126 126 133 133 127 131 138 143 145 150 151 140 132 128 130 138 144 153 173 166 159 167 184 196 214 222 227 234 240 247 253 258 264 271 278 281 282
173 145 136 143 153 149 142 146 149 154 148 142 141 143 140 132 126 123 128 137 141 153 160 162 175 182 171 170 181 199 219 246 254 245 243 249 252 256 262 266 271 275 277 280
153 170 172 172 174 170 170 167 160 154 148 146 145 133 124 120 120 125 132 137 141 151 161 170 184 182 181 187 196 214 226 250 265 266 251 253 256 258 262 266 270 274 275 278
188 186 180 173 170 164 157 148 143 141 141 139 130 127 132 138 144 145 139 123 111 110 165 183 182 187 200 209 213 219 231 242 248 252 257 258 262 259 263 268 272 275 278 282
167 159 155 151 150 146 142 138 134 129 127 130 131 134 133 131 130 132 131 130 140 178 225 203 222 221 231 243 253 231 239 252 259 260 260 272 278 269 268 270 273 275 278 280
137 130 126 120 117 123 126 124 121 118 121 124 121 117 115 118 123 128 132 152 197 207 205 230 239 236 244 252 268 244 246 254 261 267 267 266 270 272 271 272 274 276 276 277
122 118 116 113 105 101 111 119 120 118 114 116 121 125 125 121 122 127 133 190 258 208 218 263 266 257 260 267 273 252 251 259 264 267 270 272 274 276 275 275 276 277 277 277
107 108 108 108 105 96 90 98 106 109 105 102 103 107 110 110 109 105 163 209 240 295 307 262 262 277 285 287 267 258 261 266 269 270 269 271 273 275 276 277 277 277 277 276
97 101 102 102 103 99 87 84 90 97 99 101 105 108 112 119 131 137 305 293 282 305 309 270 287 295 298 296 273 271 272 272 272 272 271 271 271 273 276 277 277 278 277 277
93 93 93 94 94 91 85 78 78 82 84 83 82 89 98 90 48 48 228 313 316 312 302 295 302 304 308 299 282 277 275 274 274 274 274 273 273 274 276 278 279 278 277 277
90 89 88 88 85 85 89 88 82 77 75 71 63 55 53 67 68 319 315 305 312 318 307 305 308 310 308 289 283 280 278 275 277 280 276 278 278 278 278 277 277 278 278 277
83 82 78 77 81 85 85 83 80 73 70 63 46 37 32 22 356 320 310 305 302 311 309 298 296 299 291 284 283 282 281 286 289 286 281 280 279 278 278 278 277 277 278 277
78 78 79 73 64 64 69 72 73 63 51 46 22 6 0 351 339 327 317 311 306 303 297 294 291 289 288 287 285 284 283 282 281 280 281 280 280 279 280 278 279 279 278 277